Time,TemperatureF,DewpointF,PressureIn,WindDirection,WindDirectionDegrees,WindSpeedMPH,WindSpeedGustMPH,Humidity,HourlyPrecipIn,Conditions,Clouds,dailyrainin,SolarRadiationWatts/m^2,SoftwareType,DateUTC
2013-01-31 00:00:00,26.0,24.8,29.27,WNW,294,0.0,0.0,95,0.00,,,0.00,0.00,VWS V14.01,2013-01-31 05:00:00,
2013-01-31 00:02:00,26.0,24.8,29.27,West,271,0.0,0.0,95,0.00,,,0.00,0.00,VWS V14.01,2013-01-31 05:02:00,
2013-01-31 00:07:00,25.7,24.5,29.27,WNW,298,0.0,0.0,95,0.00,,,0.00,0.00,VWS V14.01,2013-01-31 05:07:00,
2013-01-31 00:12:00,25.6,24.4,29.27,WNW,294,1.0,0.0,95,0.00,,,0.00,0.00,VWS V14.01,2013-01-31 05:12:00,
2013-01-31 00:17:00,25.4,24.2,29.29,West,272,3.0,0.0,95,0.00,,,0.00,0.00,VWS V14.01,2013-01-31 05:17:00,
2013-01-31 00:22:00,25.3,24.1,29.29,SE,135,3.0,0.0,95,0.00,,,0.00,0.00,VWS V14.01,2013-01-31 05:22:00,
2013-01-31 00:27:00,25.1,23.9,29.29,West,273,1.0,0.0,95,0.00,,,0.00,0.00,VWS V14.01,2013-01-31 05:27:00,
2013-01-31 00:30:00,26.6,25.4,29.26,NW,317,0.0,0.0,95,0.00,,,0.00,0.00,VWS V14.01,2013-01-31 05:30:00,
2013-01-31 00:32:00,25.0,23.8,29.30,NW,312,0.0,0.0,95,0.00,,,0.00,0.00,VWS V14.01,2013-01-31 05:32:00,
2013-01-31 00:37:00,24.7,23.2,29.30,WNW,293,0.0,0.0,94,0.00,,,0.00,0.00,VWS V14.01,2013-01-31 05:37:00,
2013-01-31 00:42:00,24.5,23.0,29.30,WNW,295,2.0,0.0,94,0.00,,,0.00,0.00,VWS V14.01,2013-01-31 05:42:00,
2013-01-31 00:47:00,24.4,22.9,29.31,SW,216,2.0,0.0,94,0.00,,,0.00,0.00,VWS V14.01,2013-01-31 05:47:00,
2013-01-31 00:52:00,24.2,22.7,29.31,West,261,0.0,0.0,94,0.00,,,0.00,0.00,VWS V14.01,2013-01-31 05:52:00,
2013-01-31 00:57:00,24.2,22.7,29.31,West,271,0.0,0.0,94,0.00,,,0.00,0.00,VWS V14.01,2013-01-31 05:57:00,
2013-01-31 01:00:00,25.4,24.2,29.29,WNW,290,0.0,0.0,95,0.00,,,0.00,0.00,VWS V14.01,2013-01-31 06:00:00,
2013-01-31 01:02:00,24.1,22.6,29.31,WNW,294,0.0,0.0,94,0.00,,,0.00,0.00,VWS V14.01,2013-01-31 06:02:00,
2013-01-31 01:07:00,23.9,22.4,29.31,NNW,342,4.0,0.0,94,0.00,,,0.00,0.00,VWS V14.01,2013-01-31 06:07:00,
2013-01-31 01:12:00,23.8,22.3,29.31,WNW,284,0.0,0.0,94,0.00,,,0.00,0.00,VWS V14.01,2013-01-31 06:12:00,
2013-01-31 01:17:00,23.6,22.1,29.32,West,281,0.0,0.0,94,0.00,,,0.00,0.00,VWS V14.01,2013-01-31 06:17:00,
2013-01-31 01:22:00,23.5,21.8,29.32,WNW,284,0.0,0.0,93,0.00,,,0.00,0.00,VWS V14.01,2013-01-31 06:22:00,
2013-01-31 01:27:00,23.3,21.6,29.32,West,269,2.0,0.0,93,0.00,,,0.00,0.00,VWS V14.01,2013-01-31 06:27:00,
2013-01-31 01:30:00,24.4,22.9,29.31,WNW,302,3.0,0.0,94,0.00,,,0.00,0.00,VWS V14.01,2013-01-31 06:30:00,
2013-01-31 01:32:00,23.3,21.6,29.33,WSW,256,3.0,0.0,93,0.00,,,0.00,0.00,VWS V14.01,2013-01-31 06:32:00,
2013-01-31 01:37:00,23.0,21.3,29.33,East,86,3.0,0.0,93,0.00,,,0.00,0.00,VWS V14.01,2013-01-31 06:37:00,
2013-01-31 01:42:00,22.9,21.2,29.33,NW,308,1.0,0.0,93,0.00,,,0.00,0.00,VWS V14.01,2013-01-31 06:42:00,
2013-01-31 01:47:00,22.9,21.2,29.33,West,279,0.0,0.0,93,0.00,,,0.00,0.00,VWS V14.01,2013-01-31 06:47:00,
2013-01-31 01:52:00,22.7,21.0,29.33,WNW,284,0.0,0.0,93,0.00,,,0.00,0.00,VWS V14.01,2013-01-31 06:52:00,
2013-01-31 01:57:00,22.7,21.0,29.33,WNW,286,0.0,0.0,93,0.00,,,0.00,0.00,VWS V14.01,2013-01-31 06:57:00,
2013-01-31 02:00:00,23.8,22.3,29.32,NNW,329,0.0,13.0,94,0.00,,,0.00,0.00,VWS V14.01,2013-01-31 07:00:00,
2013-01-31 02:02:00,22.7,21.0,29.34,WNW,283,0.0,0.0,93,0.00,,,0.00,0.00,VWS V14.01,2013-01-31 07:02:00,
2013-01-31 02:07:00,22.5,20.8,29.34,WNW,284,1.0,0.0,93,0.00,,,0.00,0.00,VWS V14.01,2013-01-31 07:07:00,
2013-01-31 02:12:00,22.4,20.4,29.34,WSW,242,0.0,0.0,92,0.00,,,0.00,0.00,VWS V14.01,2013-01-31 07:12:00,
2013-01-31 02:17:00,22.2,20.2,29.35,WNW,296,0.0,0.0,92,0.00,,,0.00,0.00,VWS V14.01,2013-01-31 07:17:00,
2013-01-31 02:22:00,22.1,20.1,29.35,North,360,3.0,0.0,92,0.00,,,0.00,0.00,VWS V14.01,2013-01-31 07:22:00,
2013-01-31 02:27:00,21.9,19.9,29.35,NNW,329,0.0,0.0,92,0.00,,,0.00,0.00,VWS V14.01,2013-01-31 07:27:00,
2013-01-31 02:30:00,22.9,21.2,29.33,West,279,0.0,0.0,93,0.00,,,0.00,0.00,VWS V14.01,2013-01-31 07:30:00,
2013-01-31 02:32:00,21.9,19.9,29.37,West,259,0.0,0.0,92,0.00,,,0.00,0.00,VWS V14.01,2013-01-31 07:32:00,
2013-01-31 02:37:00,21.8,19.8,29.37,West,267,4.0,0.0,92,0.00,,,0.00,0.00,VWS V14.01,2013-01-31 07:37:00,
2013-01-31 02:42:00,21.8,19.6,29.37,WNW,286,0.0,0.0,91,0.00,,,0.00,0.00,VWS V14.01,2013-01-31 07:42:00,
2013-01-31 02:47:00,21.6,19.4,29.39,WNW,283,0.0,0.0,91,0.00,,,0.00,0.00,VWS V14.01,2013-01-31 07:47:00,
2013-01-31 02:52:00,21.4,19.2,29.39,NW,312,0.0,0.0,91,0.00,,,0.00,0.00,VWS V14.01,2013-01-31 07:52:00,
2013-01-31 02:57:00,21.3,19.1,29.39,West,268,1.0,0.0,91,0.00,,,0.00,0.00,VWS V14.01,2013-01-31 07:57:00,
2013-01-31 03:00:00,22.2,20.2,29.35,WNW,301,0.0,0.0,92,0.00,,,0.00,0.00,VWS V14.01,2013-01-31 08:00:00,
2013-01-31 03:02:00,21.3,19.1,29.39,WNW,291,2.0,0.0,91,0.00,,,0.00,0.00,VWS V14.01,2013-01-31 08:02:00,
2013-01-31 03:07:00,21.1,18.6,29.39,NNW,336,1.0,0.0,90,0.00,,,0.00,0.00,VWS V14.01,2013-01-31 08:07:00,
2013-01-31 03:12:00,21.1,18.6,29.39,SW,223,5.0,0.0,90,0.00,,,0.00,0.00,VWS V14.01,2013-01-31 08:12:00,
2013-01-31 03:17:00,21.0,18.5,29.39,NNW,328,0.0,0.0,90,0.00,,,0.00,0.00,VWS V14.01,2013-01-31 08:17:00,
2013-01-31 03:22:00,21.0,18.5,29.39,West,280,0.0,0.0,90,0.00,,,0.00,0.00,VWS V14.01,2013-01-31 08:22:00,
2013-01-31 03:27:00,20.8,18.3,29.39,West,263,0.0,0.0,90,0.00,,,0.00,0.00,VWS V14.01,2013-01-31 08:27:00,
2013-01-31 03:30:00,21.6,19.4,29.39,WNW,291,3.0,0.0,91,0.00,,,0.00,0.00,VWS V14.01,2013-01-31 08:30:00,
2013-01-31 03:32:00,20.8,18.1,29.40,West,271,1.0,0.0,89,0.00,,,0.00,0.00,VWS V14.01,2013-01-31 08:32:00,
2013-01-31 03:37:00,20.8,18.1,29.40,West,267,0.0,0.0,89,0.00,,,0.00,0.00,VWS V14.01,2013-01-31 08:37:00,
2013-01-31 03:42:00,20.8,18.1,29.40,NNW,334,0.0,0.0,89,0.00,,,0.00,0.00,VWS V14.01,2013-01-31 08:42:00,
2013-01-31 03:47:00,20.8,18.1,29.41,WNW,301,0.0,0.0,89,0.00,,,0.00,0.00,VWS V14.01,2013-01-31 08:47:00,
2013-01-31 03:52:00,20.6,17.9,29.41,SE,129,0.0,0.0,89,0.00,,,0.00,0.00,VWS V14.01,2013-01-31 08:52:00,
2013-01-31 03:57:00,20.6,17.9,29.41,WNW,290,0.0,0.0,89,0.00,,,0.00,0.00,VWS V14.01,2013-01-31 08:57:00,
2013-01-31 04:00:00,21.0,18.5,29.39,West,261,3.0,0.0,90,0.00,,,0.00,0.00,VWS V14.01,2013-01-31 09:00:00,
2013-01-31 04:02:00,20.5,17.8,29.41,West,277,0.0,0.0,89,0.00,,,0.00,0.00,VWS V14.01,2013-01-31 09:02:00,
2013-01-31 04:07:00,20.5,17.5,29.41,West,271,1.0,0.0,88,0.00,,,0.00,0.00,VWS V14.01,2013-01-31 09:07:00,
2013-01-31 04:12:00,20.5,17.5,29.41,WNW,290,0.0,0.0,88,0.00,,,0.00,0.00,VWS V14.01,2013-01-31 09:12:00,
2013-01-31 04:17:00,20.5,17.5,29.41,WNW,290,0.0,0.0,88,0.00,,,0.00,0.00,VWS V14.01,2013-01-31 09:17:00,
2013-01-31 04:22:00,20.5,17.5,29.41,WNW,290,0.0,0.0,88,0.00,,,0.00,0.00,VWS V14.01,2013-01-31 09:22:00,
2013-01-31 04:27:00,20.5,17.5,29.41,West,267,3.0,0.0,88,0.00,,,0.00,0.00,VWS V14.01,2013-01-31 09:27:00,
2013-01-31 04:30:00,20.8,18.1,29.41,WSW,250,1.0,0.0,89,0.00,,,0.00,0.00,VWS V14.01,2013-01-31 09:30:00,
2013-01-31 04:32:00,20.5,17.5,29.42,West,273,0.0,0.0,88,0.00,,,0.00,0.00,VWS V14.01,2013-01-31 09:32:00,
2013-01-31 04:37:00,20.5,17.5,29.42,NE,46,0.0,0.0,88,0.00,,,0.00,0.00,VWS V14.01,2013-01-31 09:37:00,
2013-01-31 04:42:00,20.5,17.5,29.42,WSW,240,0.0,0.0,88,0.00,,,0.00,0.00,VWS V14.01,2013-01-31 09:42:00,
2013-01-31 04:47:00,20.5,17.5,29.42,West,262,0.0,0.0,88,0.00,,,0.00,0.00,VWS V14.01,2013-01-31 09:47:00,
2013-01-31 04:52:00,20.5,17.5,29.42,WSW,257,0.0,0.0,88,0.00,,,0.00,0.00,VWS V14.01,2013-01-31 09:52:00,
2013-01-31 04:57:00,20.5,17.5,29.42,West,270,3.0,0.0,88,0.00,,,0.00,0.00,VWS V14.01,2013-01-31 09:57:00,
2013-01-31 05:00:00,20.5,17.5,29.41,WNW,290,0.0,0.0,88,0.00,,,0.00,0.00,VWS V14.01,2013-01-31 10:00:00,
2013-01-31 05:02:00,20.3,17.3,29.42,South,182,0.0,0.0,88,0.00,,,0.00,0.00,VWS V14.01,2013-01-31 10:02:00,
2013-01-31 05:07:00,20.3,17.3,29.42,WNW,288,0.0,0.0,88,0.00,,,0.00,0.00,VWS V14.01,2013-01-31 10:07:00,
2013-01-31 05:12:00,20.3,17.3,29.42,SSE,148,0.0,0.0,88,0.00,,,0.00,0.00,VWS V14.01,2013-01-31 10:12:00,
2013-01-31 05:30:00,20.5,17.5,29.42,SSW,200,1.0,0.0,88,0.00,,,0.00,0.00,VWS V14.01,2013-01-31 10:30:00,
2013-01-31 06:00:00,20.2,17.2,29.44,WSW,239,0.0,0.0,88,0.00,,,0.00,0.00,VWS V14.01,2013-01-31 11:00:00,
2013-01-31 06:30:00,19.7,16.7,29.46,NW,314,1.0,0.0,88,0.00,,,0.00,0.00,VWS V14.01,2013-01-31 11:30:00,
2013-01-31 06:53:00,18.3,15.4,29.48,NE,51,0.0,0.0,88,0.00,,,0.00,0.00,VWS V14.01,2013-01-31 11:53:00,
2013-01-31 06:57:00,18.1,15.1,29.48,WNW,286,1.0,0.0,88,0.00,,,0.00,0.00,VWS V14.01,2013-01-31 11:57:00,
2013-01-31 07:00:00,19.1,16.1,29.46,SW,216,0.0,0.0,88,0.00,,,0.00,0.00,VWS V14.01,2013-01-31 12:00:00,
2013-01-31 07:02:00,18.1,15.1,29.48,SW,236,2.0,0.0,88,0.00,,,0.00,0.00,VWS V14.01,2013-01-31 12:02:00,
2013-01-31 07:07:00,18.0,15.1,29.48,NW,305,0.0,0.0,88,0.00,,,0.00,0.00,VWS V14.01,2013-01-31 12:07:00,
2013-01-31 07:12:00,18.0,15.1,29.48,WSW,258,1.0,0.0,88,0.00,,,0.00,0.00,VWS V14.01,2013-01-31 12:12:00,
2013-01-31 07:17:00,17.8,14.9,29.49,West,276,0.0,0.0,88,0.00,,,0.00,0.00,VWS V14.01,2013-01-31 12:17:00,
2013-01-31 07:22:00,17.8,14.9,29.49,WNW,287,1.0,0.0,88,0.00,,,0.00,0.00,VWS V14.01,2013-01-31 12:22:00,
2013-01-31 07:27:00,17.7,14.8,29.49,West,264,0.0,0.0,88,0.00,,,0.00,0.00,VWS V14.01,2013-01-31 12:27:00,
2013-01-31 07:30:00,18.4,15.4,29.48,West,271,0.0,0.0,88,0.00,,,0.00,0.00,VWS V14.01,2013-01-31 12:30:00,
2013-01-31 07:32:00,17.7,14.8,29.50,West,264,0.0,0.0,88,0.00,,,0.00,0.00,VWS V14.01,2013-01-31 12:32:00,
2013-01-31 07:37:00,17.7,14.8,29.50,WNW,298,0.0,0.0,88,0.00,,,0.00,0.00,VWS V14.01,2013-01-31 12:37:00,
2013-01-31 07:42:00,17.5,14.6,29.50,West,280,0.0,0.0,88,0.00,,,0.00,0.00,VWS V14.01,2013-01-31 12:42:00,
2013-01-31 07:47:00,17.5,14.6,29.51,SW,235,0.0,0.0,88,0.00,,,0.00,0.00,VWS V14.01,2013-01-31 12:47:00,
2013-01-31 07:52:00,17.3,14.4,29.51,WNW,287,0.0,0.0,88,0.00,,,0.00,0.00,VWS V14.01,2013-01-31 12:52:00,
2013-01-31 07:57:00,17.3,14.4,29.51,West,275,0.0,0.0,88,0.00,,,0.00,0.00,VWS V14.01,2013-01-31 12:57:00,
2013-01-31 08:00:00,17.8,14.9,29.49,West,281,0.0,0.0,88,0.00,,,0.00,0.00,VWS V14.01,2013-01-31 13:00:00,
2013-01-31 08:02:00,17.2,14.3,29.51,SSW,204,0.0,0.0,88,0.00,,,0.00,0.00,VWS V14.01,2013-01-31 13:02:00,
2013-01-31 08:07:00,17.2,14.3,29.51,NE,38,1.0,0.0,88,0.00,,,0.00,0.00,VWS V14.01,2013-01-31 13:07:00,
2013-01-31 08:12:00,17.0,13.8,29.51,WNW,296,2.0,0.0,87,0.00,,,0.00,0.00,VWS V14.01,2013-01-31 13:12:00,
2013-01-31 08:17:00,17.0,13.8,29.52,WSW,255,6.0,0.0,87,0.00,,,0.00,0.00,VWS V14.01,2013-01-31 13:17:00,
2013-01-31 08:22:00,16.9,13.7,29.52,WNW,282,0.0,0.0,87,0.00,,,0.00,0.00,VWS V14.01,2013-01-31 13:22:00,
2013-01-31 08:27:00,16.9,13.7,29.52,WSW,250,0.0,0.0,87,0.00,,,0.00,0.00,VWS V14.01,2013-01-31 13:27:00,
2013-01-31 08:30:00,17.5,14.6,29.51,NNE,13,0.0,0.0,88,0.00,,,0.00,0.00,VWS V14.01,2013-01-31 13:30:00,
2013-01-31 08:32:00,16.9,13.7,29.53,WSW,251,0.0,0.0,87,0.00,,,0.00,0.00,VWS V14.01,2013-01-31 13:32:00,
2013-01-31 08:37:00,16.9,13.7,29.53,WNW,284,0.0,0.0,87,0.00,,,0.00,5.00,VWS V14.01,2013-01-31 13:37:00,
2013-01-31 08:42:00,16.9,13.7,29.53,West,272,1.0,0.0,87,0.00,,,0.00,5.00,VWS V14.01,2013-01-31 13:42:00,
2013-01-31 08:47:00,17.0,13.8,29.54,SW,234,0.0,0.0,87,0.00,,,0.00,5.00,VWS V14.01,2013-01-31 13:47:00,
2013-01-31 08:52:00,17.0,13.8,29.54,West,259,2.0,0.0,87,0.00,,,0.00,5.00,VWS V14.01,2013-01-31 13:52:00,
2013-01-31 08:57:00,17.2,14.0,29.54,NNE,25,1.0,0.0,87,0.00,,,0.00,5.00,VWS V14.01,2013-01-31 13:57:00,
2013-01-31 09:00:00,17.0,13.8,29.52,NNW,345,0.0,0.0,87,0.00,,,0.00,0.00,VWS V14.01,2013-01-31 14:00:00,
2013-01-31 09:02:00,17.2,14.0,29.55,WNW,292,0.0,0.0,87,0.00,,,0.00,5.00,VWS V14.01,2013-01-31 14:02:00,
2013-01-31 09:07:00,17.3,14.1,29.55,WNW,294,0.0,0.0,87,0.00,,,0.00,5.00,VWS V14.01,2013-01-31 14:07:00,
2013-01-31 09:12:00,17.3,14.1,29.55,WNW,294,0.0,0.0,87,0.00,,,0.00,7.00,VWS V14.01,2013-01-31 14:12:00,
2013-01-31 09:17:00,17.5,14.3,29.56,WNW,294,0.0,0.0,87,0.00,,,0.00,5.00,VWS V14.01,2013-01-31 14:17:00,
2013-01-31 09:22:00,17.5,14.3,29.56,WNW,294,0.0,0.0,87,0.00,,,0.00,7.00,VWS V14.01,2013-01-31 14:22:00,
2013-01-31 09:27:00,17.7,14.5,29.56,West,269,0.0,0.0,87,0.00,,,0.00,7.00,VWS V14.01,2013-01-31 14:27:00,
2013-01-31 09:30:00,17.0,13.8,29.54,SW,230,0.0,0.0,87,0.00,,,0.00,5.00,VWS V14.01,2013-01-31 14:30:00,
2013-01-31 09:32:00,17.7,14.5,29.56,West,269,0.0,0.0,87,0.00,,,0.00,9.00,VWS V14.01,2013-01-31 14:32:00,
2013-01-31 09:37:00,17.7,14.5,29.56,WSW,254,0.0,0.0,87,0.00,,,0.00,11.00,VWS V14.01,2013-01-31 14:37:00,
2013-01-31 09:42:00,17.7,14.5,29.56,South,182,0.0,0.0,87,0.00,,,0.00,11.00,VWS V14.01,2013-01-31 14:42:00,
2013-01-31 09:47:00,17.8,14.6,29.57,South,184,0.0,0.0,87,0.00,,,0.00,12.00,VWS V14.01,2013-01-31 14:47:00,
2013-01-31 09:52:00,17.8,14.6,29.57,South,186,0.0,0.0,87,0.00,,,0.00,12.00,VWS V14.01,2013-01-31 14:52:00,
2013-01-31 09:57:00,18.0,14.8,29.57,WNW,292,0.0,0.0,87,0.00,,,0.00,14.00,VWS V14.01,2013-01-31 14:57:00,
2013-01-31 10:00:00,17.5,14.3,29.56,WNW,294,0.0,0.0,87,0.00,,,0.00,5.00,VWS V14.01,2013-01-31 15:00:00,
2013-01-31 10:02:00,18.0,14.8,29.58,SSW,205,3.0,0.0,87,0.00,,,0.00,14.00,VWS V14.01,2013-01-31 15:02:00,
2013-01-31 10:07:00,18.1,14.9,29.58,WNW,285,0.0,0.0,87,0.00,,,0.00,23.00,VWS V14.01,2013-01-31 15:07:00,
2013-01-31 10:12:00,18.1,14.9,29.58,ENE,68,0.0,0.0,87,0.00,,,0.00,23.00,VWS V14.01,2013-01-31 15:12:00,
2013-01-31 10:17:00,18.1,14.9,29.58,NNE,17,0.0,0.0,87,0.00,,,0.00,23.00,VWS V14.01,2013-01-31 15:17:00,
2013-01-31 10:22:00,18.3,15.1,29.58,West,269,0.0,0.0,87,0.00,,,0.00,23.00,VWS V14.01,2013-01-31 15:22:00,
2013-01-31 10:27:00,18.3,15.1,29.58,WNW,283,0.0,0.0,87,0.00,,,0.00,21.00,VWS V14.01,2013-01-31 15:27:00,
2013-01-31 10:30:00,17.8,14.6,29.57,South,182,0.0,0.0,87,0.00,,,0.00,11.00,VWS V14.01,2013-01-31 15:30:00,
2013-01-31 10:32:00,18.4,15.2,29.59,West,281,0.0,0.0,87,0.00,,,0.00,26.00,VWS V14.01,2013-01-31 15:32:00,
2013-01-31 10:37:00,18.4,15.2,29.59,SW,224,0.0,0.0,87,0.00,,,0.00,26.00,VWS V14.01,2013-01-31 15:37:00,
2013-01-31 10:42:00,18.6,15.6,29.59,SSE,159,0.0,0.0,88,0.00,,,0.00,18.00,VWS V14.01,2013-01-31 15:42:00,
2013-01-31 10:47:00,18.8,15.6,29.59,South,175,0.0,0.0,87,0.00,,,0.00,19.00,VWS V14.01,2013-01-31 15:47:00,
2013-01-31 10:52:00,18.9,15.7,29.59,SW,229,0.0,0.0,87,0.00,,,0.00,25.00,VWS V14.01,2013-01-31 15:52:00,
2013-01-31 10:57:00,18.9,15.7,29.59,SW,224,0.0,0.0,87,0.00,,,0.00,28.00,VWS V14.01,2013-01-31 15:57:00,
2013-01-31 11:00:00,18.1,14.9,29.58,NNE,17,0.0,0.0,87,0.00,,,0.00,23.00,VWS V14.01,2013-01-31 16:00:00,
2013-01-31 11:02:00,18.9,15.7,29.59,ESE,118,0.0,0.0,87,0.00,,,0.00,32.00,VWS V14.01,2013-01-31 16:02:00,
2013-01-31 11:07:00,18.9,15.7,29.59,WSW,244,0.0,0.0,87,0.00,,,0.00,28.00,VWS V14.01,2013-01-31 16:07:00,
2013-01-31 11:12:00,19.1,15.9,29.59,West,277,0.0,0.0,87,0.00,,,0.00,32.00,VWS V14.01,2013-01-31 16:12:00,
2013-01-31 11:17:00,19.2,16.0,29.60,WSW,245,0.0,0.0,87,0.00,,,0.00,35.00,VWS V14.01,2013-01-31 16:17:00,
2013-01-31 11:22:00,19.2,16.0,29.60,West,267,0.0,0.0,87,0.00,,,0.00,30.00,VWS V14.01,2013-01-31 16:22:00,
2013-01-31 11:27:00,19.2,16.0,29.60,West,266,3.0,0.0,87,0.00,,,0.00,30.00,VWS V14.01,2013-01-31 16:27:00,
2013-01-31 11:30:00,18.8,15.6,29.59,South,175,0.0,0.0,87,0.00,,,0.00,23.00,VWS V14.01,2013-01-31 16:30:00,
2013-01-31 11:32:00,19.2,16.0,29.61,SW,232,0.0,0.0,87,0.00,,,0.00,28.00,VWS V14.01,2013-01-31 16:32:00,
2013-01-31 11:37:00,19.2,16.0,29.61,WSW,250,1.0,0.0,87,0.00,,,0.00,33.00,VWS V14.01,2013-01-31 16:37:00,
2013-01-31 11:42:00,19.2,16.0,29.61,West,275,0.0,0.0,87,0.00,,,0.00,25.00,VWS V14.01,2013-01-31 16:42:00,
2013-01-31 11:47:00,19.2,16.0,29.61,NW,304,0.0,0.0,87,0.00,,,0.00,28.00,VWS V14.01,2013-01-31 16:47:00,
2013-01-31 11:52:00,19.2,16.0,29.61,NNE,31,0.0,0.0,87,0.00,,,0.00,32.00,VWS V14.01,2013-01-31 16:52:00,
2013-01-31 11:57:00,19.4,16.2,29.61,NW,310,0.0,0.0,87,0.00,,,0.00,26.00,VWS V14.01,2013-01-31 16:57:00,
2013-01-31 12:00:00,19.1,15.9,29.60,West,277,0.0,0.0,87,0.00,,,0.00,40.00,VWS V14.01,2013-01-31 17:00:00,
2013-01-31 12:02:00,19.5,16.3,29.61,SW,219,0.0,0.0,87,0.00,,,0.00,30.00,VWS V14.01,2013-01-31 17:02:00,
2013-01-31 12:07:00,19.5,16.0,29.61,WNW,292,0.0,0.0,86,0.00,,,0.00,26.00,VWS V14.01,2013-01-31 17:07:00,
2013-01-31 12:12:00,19.5,16.0,29.61,West,263,0.0,0.0,86,0.00,,,0.00,30.00,VWS V14.01,2013-01-31 17:12:00,
2013-01-31 12:17:00,19.5,16.0,29.61,WNW,287,0.0,0.0,86,0.00,,,0.00,30.00,VWS V14.01,2013-01-31 17:17:00,
2013-01-31 12:22:00,19.5,16.0,29.61,WSW,241,0.0,0.0,86,0.00,,,0.00,21.00,VWS V14.01,2013-01-31 17:22:00,
2013-01-31 12:27:00,19.4,15.6,29.61,SW,220,0.0,0.0,85,0.00,,,0.00,26.00,VWS V14.01,2013-01-31 17:27:00,
2013-01-31 12:30:00,19.2,16.0,29.61,West,275,0.0,0.0,87,0.00,,,0.00,26.00,VWS V14.01,2013-01-31 17:30:00,
2013-01-31 12:32:00,19.2,15.4,29.61,WSW,256,0.0,0.0,85,0.00,,,0.00,53.00,VWS V14.01,2013-01-31 17:32:00,
2013-01-31 12:37:00,19.2,15.7,29.61,SW,227,0.0,0.0,86,0.00,,,0.00,49.00,VWS V14.01,2013-01-31 17:37:00,
2013-01-31 12:42:00,19.4,15.9,29.61,NNE,33,0.0,0.0,86,0.00,,,0.00,37.00,VWS V14.01,2013-01-31 17:42:00,
2013-01-31 12:47:00,19.5,16.0,29.62,WNW,297,0.0,0.0,86,0.00,,,0.00,30.00,VWS V14.01,2013-01-31 17:47:00,
2013-01-31 12:52:00,19.7,16.2,29.62,WSW,238,0.0,0.0,86,0.00,,,0.00,30.00,VWS V14.01,2013-01-31 17:52:00,
2013-01-31 12:57:00,19.7,15.9,29.62,WSW,251,0.0,0.0,85,0.00,,,0.00,26.00,VWS V14.01,2013-01-31 17:57:00,
2013-01-31 13:00:00,19.5,16.0,29.61,WNW,287,0.0,0.0,86,0.00,,,0.00,30.00,VWS V14.01,2013-01-31 18:00:00,
2013-01-31 13:02:00,19.5,15.7,29.62,SW,226,1.0,0.0,85,0.00,,,0.00,28.00,VWS V14.01,2013-01-31 18:02:00,
2013-01-31 13:07:00,19.2,15.4,29.62,WSW,257,0.0,0.0,85,0.00,,,0.00,26.00,VWS V14.01,2013-01-31 18:07:00,
2013-01-31 13:12:00,18.9,15.1,29.62,West,274,1.0,0.0,85,0.00,,,0.00,26.00,VWS V14.01,2013-01-31 18:12:00,
2013-01-31 13:17:00,18.8,14.8,29.63,West,263,0.0,0.0,84,0.00,,,0.00,25.00,VWS V14.01,2013-01-31 18:17:00,
2013-01-31 13:22:00,18.6,14.6,29.63,West,272,0.0,0.0,84,0.00,,,0.00,33.00,VWS V14.01,2013-01-31 18:22:00,
2013-01-31 13:27:00,18.6,14.9,29.63,West,271,0.0,0.0,85,0.00,,,0.00,40.00,VWS V14.01,2013-01-31 18:27:00,
2013-01-31 13:30:00,19.5,16.0,29.62,WNW,297,0.0,0.0,86,0.00,,,0.00,32.00,VWS V14.01,2013-01-31 18:30:00,
2013-01-31 13:32:00,18.8,15.1,29.63,WSW,241,0.0,0.0,85,0.00,,,0.00,44.00,VWS V14.01,2013-01-31 18:32:00,
2013-01-31 13:37:00,18.9,15.1,29.63,WNW,287,0.0,0.0,85,0.00,,,0.00,37.00,VWS V14.01,2013-01-31 18:37:00,
2013-01-31 13:42:00,19.1,15.3,29.63,WNW,287,0.0,0.0,85,0.00,,,0.00,49.00,VWS V14.01,2013-01-31 18:42:00,
2013-01-31 13:47:00,19.4,15.6,29.63,WSW,254,3.0,0.0,85,0.00,,,0.00,53.00,VWS V14.01,2013-01-31 18:47:00,
2013-01-31 13:52:00,19.5,15.7,29.63,WNW,288,0.0,0.0,85,0.00,,,0.00,65.00,VWS V14.01,2013-01-31 18:52:00,
2013-01-31 13:57:00,19.9,15.9,29.63,West,263,0.0,0.0,84,0.00,,,0.00,90.00,VWS V14.01,2013-01-31 18:57:00,
2013-01-31 14:00:00,18.8,14.8,29.63,SW,217,0.0,0.0,84,0.00,,,0.00,25.00,VWS V14.01,2013-01-31 19:00:00,
2013-01-31 14:02:00,20.2,16.1,29.63,West,260,1.0,0.0,84,0.00,,,0.00,67.00,VWS V14.01,2013-01-31 19:02:00,
2013-01-31 14:07:00,20.3,16.0,29.63,WSW,249,2.0,0.0,83,0.00,,,0.00,46.00,VWS V14.01,2013-01-31 19:07:00,
2013-01-31 14:12:00,20.3,15.4,29.63,WSW,242,0.0,0.0,81,0.00,,,0.00,33.00,VWS V14.01,2013-01-31 19:12:00,
2013-01-31 14:17:00,20.2,15.0,29.64,WSW,257,0.0,0.0,80,0.00,,,0.00,30.00,VWS V14.01,2013-01-31 19:17:00,
2013-01-31 14:22:00,19.9,14.4,29.64,WSW,238,2.0,0.0,79,0.00,,,0.00,28.00,VWS V14.01,2013-01-31 19:22:00,
2013-01-31 14:27:00,19.4,14.0,29.64,West,277,0.0,0.0,79,0.00,,,0.00,23.00,VWS V14.01,2013-01-31 19:27:00,
2013-01-31 14:30:00,19.2,15.4,29.63,WNW,287,0.0,0.0,85,0.00,,,0.00,51.00,VWS V14.01,2013-01-31 19:30:00,
2013-01-31 14:32:00,19.1,13.4,29.65,NNW,329,1.0,0.0,78,0.00,,,0.00,23.00,VWS V14.01,2013-01-31 19:32:00,
2013-01-31 14:37:00,18.6,12.9,29.65,WSW,254,1.0,0.0,78,0.00,,,0.00,23.00,VWS V14.01,2013-01-31 19:37:00,
2013-01-31 14:42:00,18.4,12.7,29.65,West,276,0.0,0.0,78,0.00,,,0.00,21.00,VWS V14.01,2013-01-31 19:42:00,
2013-01-31 14:47:00,18.0,12.0,29.65,West,271,0.0,0.0,77,0.00,,,0.00,21.00,VWS V14.01,2013-01-31 19:47:00,
2013-01-31 14:52:00,17.8,11.8,29.65,NW,317,0.0,0.0,77,0.00,,,0.00,23.00,VWS V14.01,2013-01-31 19:52:00,
2013-01-31 14:57:00,17.8,11.8,29.65,West,269,0.0,0.0,77,0.00,,,0.00,28.00,VWS V14.01,2013-01-31 19:57:00,
2013-01-31 15:00:00,20.2,15.0,29.64,WNW,288,0.0,0.0,80,0.00,,,0.00,32.00,VWS V14.01,2013-01-31 20:00:00,
2013-01-31 15:02:00,17.8,11.8,29.65,West,265,0.0,0.0,77,0.00,,,0.00,37.00,VWS V14.01,2013-01-31 20:02:00,
2013-01-31 15:07:00,17.8,12.1,29.65,ESE,116,0.0,0.0,78,0.00,,,0.00,35.00,VWS V14.01,2013-01-31 20:07:00,
2013-01-31 15:12:00,17.8,12.1,29.65,SW,235,1.0,0.0,78,0.00,,,0.00,26.00,VWS V14.01,2013-01-31 20:12:00,
2013-01-31 15:17:00,17.8,12.1,29.66,West,267,0.0,0.0,78,0.00,,,0.00,25.00,VWS V14.01,2013-01-31 20:17:00,
2013-01-31 15:22:00,17.7,12.0,29.66,WNW,297,0.0,0.0,78,0.00,,,0.00,23.00,VWS V14.01,2013-01-31 20:22:00,
2013-01-31 15:27:00,17.5,11.8,29.66,West,274,1.0,0.0,78,0.00,,,0.00,26.00,VWS V14.01,2013-01-31 20:27:00,
2013-01-31 15:30:00,18.1,12.1,29.65,West,263,0.0,0.0,77,0.00,,,0.00,21.00,VWS V14.01,2013-01-31 20:30:00,
2013-01-31 15:32:00,17.3,11.6,29.66,WSW,258,0.0,0.0,78,0.00,,,0.00,23.00,VWS V14.01,2013-01-31 20:32:00,
2013-01-31 15:37:00,17.3,11.9,29.66,WNW,289,0.0,0.0,79,0.00,,,0.00,21.00,VWS V14.01,2013-01-31 20:37:00,
2013-01-31 15:42:00,17.3,11.9,29.66,NW,304,3.0,0.0,79,0.00,,,0.00,21.00,VWS V14.01,2013-01-31 20:42:00,
2013-01-31 15:47:00,17.2,11.8,29.66,West,275,0.0,0.0,79,0.00,,,0.00,21.00,VWS V14.01,2013-01-31 20:47:00,
2013-01-31 15:52:00,17.0,11.6,29.66,WNW,292,0.0,0.0,79,0.00,,,0.00,21.00,VWS V14.01,2013-01-31 20:52:00,
2013-01-31 15:57:00,16.9,11.5,29.66,West,268,0.0,0.0,79,0.00,,,0.00,19.00,VWS V14.01,2013-01-31 20:57:00,
2013-01-31 16:00:00,17.8,12.1,29.66,North,360,0.0,0.0,78,0.00,,,0.00,26.00,VWS V14.01,2013-01-31 21:00:00,
2013-01-31 16:02:00,16.7,11.3,29.66,West,273,0.0,0.0,79,0.00,,,0.00,19.00,VWS V14.01,2013-01-31 21:02:00,
2013-01-31 16:07:00,16.5,11.4,29.66,West,260,0.0,0.0,80,0.00,,,0.00,21.00,VWS V14.01,2013-01-31 21:07:00,
2013-01-31 16:12:00,16.5,11.4,29.66,West,267,3.0,0.0,80,0.00,,,0.00,19.00,VWS V14.01,2013-01-31 21:12:00,
2013-01-31 16:17:00,16.5,11.4,29.66,West,273,0.0,0.0,80,0.00,,,0.00,16.00,VWS V14.01,2013-01-31 21:17:00,
2013-01-31 16:22:00,16.4,11.6,29.66,SW,229,0.0,0.0,81,0.00,,,0.00,12.00,VWS V14.01,2013-01-31 21:22:00,
2013-01-31 16:27:00,16.4,11.6,29.66,WSW,247,1.0,0.0,81,0.00,,,0.00,12.00,VWS V14.01,2013-01-31 21:27:00,
2013-01-31 16:30:00,17.2,11.8,29.66,West,275,4.0,0.0,79,0.00,,,0.00,21.00,VWS V14.01,2013-01-31 21:30:00,
2013-01-31 16:32:00,16.4,11.6,29.67,WSW,244,0.0,0.0,81,0.00,,,0.00,11.00,VWS V14.01,2013-01-31 21:32:00,
2013-01-31 16:37:00,16.2,11.4,29.67,West,273,0.0,0.0,81,0.00,,,0.00,9.00,VWS V14.01,2013-01-31 21:37:00,
2013-01-31 16:42:00,16.1,11.3,29.67,West,263,2.0,0.0,81,0.00,,,0.00,9.00,VWS V14.01,2013-01-31 21:42:00,
2013-01-31 16:47:00,16.1,11.6,29.68,WSW,257,0.0,0.0,82,0.00,,,0.00,9.00,VWS V14.01,2013-01-31 21:47:00,
2013-01-31 16:52:00,15.9,11.4,29.68,WSW,255,1.0,0.0,82,0.00,,,0.00,7.00,VWS V14.01,2013-01-31 21:52:00,
2013-01-31 16:57:00,15.7,11.2,29.68,SSW,202,0.0,0.0,82,0.00,,,0.00,5.00,VWS V14.01,2013-01-31 21:57:00,
2013-01-31 17:00:00,16.5,11.4,29.66,West,273,0.0,0.0,80,0.00,,,0.00,16.00,VWS V14.01,2013-01-31 22:00:00,
2013-01-31 17:02:00,15.6,11.1,29.68,West,271,0.0,0.0,82,0.00,,,0.00,5.00,VWS V14.01,2013-01-31 22:02:00,
2013-01-31 17:07:00,15.6,11.1,29.68,WSW,238,0.0,0.0,82,0.00,,,0.00,5.00,VWS V14.01,2013-01-31 22:07:00,
2013-01-31 17:12:00,15.6,11.1,29.68,North,5,0.0,0.0,82,0.00,,,0.00,5.00,VWS V14.01,2013-01-31 22:12:00,
2013-01-31 17:17:00,15.4,10.9,29.69,West,275,0.0,0.0,82,0.00,,,0.00,0.00,VWS V14.01,2013-01-31 22:17:00,
2013-01-31 17:22:00,15.4,10.9,29.69,WNW,283,0.0,0.0,82,0.00,,,0.00,0.00,VWS V14.01,2013-01-31 22:22:00,
2013-01-31 17:27:00,15.2,11.0,29.69,WNW,283,0.0,0.0,83,0.00,,,0.00,0.00,VWS V14.01,2013-01-31 22:27:00,
2013-01-31 17:30:00,16.1,11.6,29.68,West,266,0.0,0.0,82,0.00,,,0.00,9.00,VWS V14.01,2013-01-31 22:30:00,
2013-01-31 17:32:00,15.2,11.0,29.69,West,277,0.0,0.0,83,0.00,,,0.00,0.00,VWS V14.01,2013-01-31 22:32:00,
2013-01-31 17:37:00,15.1,10.9,29.69,West,261,0.0,0.0,83,0.00,,,0.00,0.00,VWS V14.01,2013-01-31 22:37:00,
2013-01-31 17:42:00,15.1,10.9,29.69,West,263,0.0,0.0,83,0.00,,,0.00,0.00,VWS V14.01,2013-01-31 22:42:00,
2013-01-31 17:47:00,14.9,10.7,29.70,WSW,255,0.0,0.0,83,0.00,,,0.00,0.00,VWS V14.01,2013-01-31 22:47:00,
2013-01-31 17:52:00,14.8,10.6,29.70,WNW,288,0.0,0.0,83,0.00,,,0.00,0.00,VWS V14.01,2013-01-31 22:52:00,
2013-01-31 17:57:00,14.8,10.6,29.70,NW,307,0.0,0.0,83,0.00,,,0.00,0.00,VWS V14.01,2013-01-31 22:57:00,
2013-01-31 18:00:00,15.4,10.9,29.69,West,275,0.0,0.0,82,0.00,,,0.00,0.00,VWS V14.01,2013-01-31 23:00:00,
2013-01-31 18:02:00,14.6,10.7,29.70,NW,307,0.0,0.0,84,0.00,,,0.00,0.00,VWS V14.01,2013-01-31 23:02:00,
2013-01-31 18:07:00,14.6,10.7,29.70,West,271,0.0,0.0,84,0.00,,,0.00,0.00,VWS V14.01,2013-01-31 23:07:00,
2013-01-31 18:12:00,14.4,10.5,29.70,West,271,0.0,0.0,84,0.00,,,0.00,0.00,VWS V14.01,2013-01-31 23:12:00,
2013-01-31 18:17:00,14.4,10.5,29.71,NW,323,0.0,0.0,84,0.00,,,0.00,0.00,VWS V14.01,2013-01-31 23:17:00,
2013-01-31 18:22:00,14.3,10.4,29.71,SW,235,0.0,0.0,84,0.00,,,0.00,0.00,VWS V14.01,2013-01-31 23:22:00,
2013-01-31 18:27:00,14.3,10.4,29.71,NW,310,0.0,0.0,84,0.00,,,0.00,0.00,VWS V14.01,2013-01-31 23:27:00,
2013-01-31 18:30:00,14.9,10.7,29.70,WSW,255,0.0,0.0,83,0.00,,,0.00,0.00,VWS V14.01,2013-01-31 23:30:00,
2013-01-31 18:32:00,14.3,10.4,29.71,NW,310,0.0,0.0,84,0.00,,,0.00,0.00,VWS V14.01,2013-01-31 23:32:00,
2013-01-31 18:37:00,14.3,10.4,29.71,NW,310,0.0,0.0,84,0.00,,,0.00,0.00,VWS V14.01,2013-01-31 23:37:00,
2013-01-31 18:42:00,14.3,10.4,29.71,NW,310,0.0,0.0,84,0.00,,,0.00,0.00,VWS V14.01,2013-01-31 23:42:00,
2013-01-31 18:47:00,14.3,10.6,29.72,WNW,287,0.0,0.0,85,0.00,,,0.00,0.00,VWS V14.01,2013-01-31 23:47:00,
2013-01-31 18:52:00,14.3,10.6,29.72,WSW,251,1.0,0.0,85,0.00,,,0.00,0.00,VWS V14.01,2013-01-31 23:52:00,
2013-01-31 18:57:00,14.3,10.6,29.72,WSW,249,0.0,0.0,85,0.00,,,0.00,0.00,VWS V14.01,2013-01-31 23:57:00,
2013-01-31 19:00:00,14.4,10.5,29.71,WNW,301,0.0,0.0,84,0.00,,,0.00,0.00,VWS V14.01,2013-02-01 00:00:00,
2013-01-31 19:02:00,14.1,10.4,29.73,WSW,248,0.0,0.0,85,0.00,,,0.00,0.00,VWS V14.01,2013-02-01 00:02:00,
2013-01-31 19:07:00,14.1,10.4,29.73,West,270,0.0,0.0,85,0.00,,,0.00,0.00,VWS V14.01,2013-02-01 00:07:00,
2013-01-31 19:12:00,14.1,10.4,29.73,West,271,0.0,0.0,85,0.00,,,0.00,0.00,VWS V14.01,2013-02-01 00:12:00,
2013-01-31 19:17:00,14.1,10.4,29.74,West,259,0.0,0.0,85,0.00,,,0.00,0.00,VWS V14.01,2013-02-01 00:17:00,
2013-01-31 19:22:00,14.0,10.3,29.74,NW,306,0.0,0.0,85,0.00,,,0.00,0.00,VWS V14.01,2013-02-01 00:22:00,
2013-01-31 19:27:00,14.0,10.3,29.74,WNW,293,0.0,0.0,85,0.00,,,0.00,0.00,VWS V14.01,2013-02-01 00:27:00,
2013-01-31 19:30:00,14.3,10.6,29.72,WNW,287,0.0,0.0,85,0.00,,,0.00,0.00,VWS V14.01,2013-02-01 00:30:00,
2013-01-31 19:32:00,14.0,10.3,29.75,WSW,255,0.0,0.0,85,0.00,,,0.00,0.00,VWS V14.01,2013-02-01 00:32:00,
2013-01-31 19:37:00,13.8,10.1,29.75,SW,229,0.0,0.0,85,0.00,,,0.00,0.00,VWS V14.01,2013-02-01 00:37:00,
2013-01-31 19:42:00,13.8,10.1,29.75,West,259,0.0,0.0,85,0.00,,,0.00,0.00,VWS V14.01,2013-02-01 00:42:00,
2013-01-31 19:47:00,13.6,9.9,29.75,SW,226,0.0,0.0,85,0.00,,,0.00,0.00,VWS V14.01,2013-02-01 00:47:00,
2013-01-31 19:52:00,13.6,9.9,29.75,West,262,0.0,0.0,85,0.00,,,0.00,0.00,VWS V14.01,2013-02-01 00:52:00,
2013-01-31 19:57:00,13.6,9.9,29.75,West,263,0.0,0.0,85,0.00,,,0.00,0.00,VWS V14.01,2013-02-01 00:57:00,
2013-01-31 20:00:00,14.1,10.4,29.74,East,85,0.0,0.0,85,0.00,,,0.00,0.00,VWS V14.01,2013-02-01 01:00:00,
2013-01-31 20:02:00,13.5,9.8,29.75,SW,227,1.0,0.0,85,0.00,,,0.00,0.00,VWS V14.01,2013-02-01 01:02:00,
2013-01-31 20:07:00,13.5,9.8,29.75,WSW,246,0.0,0.0,85,0.00,,,0.00,0.00,VWS V14.01,2013-02-01 01:07:00,
2013-01-31 20:12:00,13.5,9.8,29.75,SW,229,1.0,0.0,85,0.00,,,0.00,0.00,VWS V14.01,2013-02-01 01:12:00,
2013-01-31 20:17:00,13.5,9.8,29.76,West,262,0.0,0.0,85,0.00,,,0.00,0.00,VWS V14.01,2013-02-01 01:17:00,
2013-01-31 20:22:00,13.5,9.8,29.76,WNW,298,0.0,0.0,85,0.00,,,0.00,0.00,VWS V14.01,2013-02-01 01:22:00,
2013-01-31 20:27:00,13.5,9.8,29.76,WNW,294,0.0,0.0,85,0.00,,,0.00,0.00,VWS V14.01,2013-02-01 01:27:00,
2013-01-31 20:30:00,13.6,9.9,29.75,NNW,331,0.0,0.0,85,0.00,,,0.00,0.00,VWS V14.01,2013-02-01 01:30:00,
2013-01-31 20:32:00,13.5,9.8,29.76,NNW,338,0.0,0.0,85,0.00,,,0.00,0.00,VWS V14.01,2013-02-01 01:32:00,
2013-01-31 20:37:00,13.3,9.9,29.76,NW,313,0.0,0.0,86,0.00,,,0.00,0.00,VWS V14.01,2013-02-01 01:37:00,
2013-01-31 20:42:00,13.3,9.9,29.76,WSW,245,0.0,0.0,86,0.00,,,0.00,0.00,VWS V14.01,2013-02-01 01:42:00,
2013-01-31 20:47:00,13.3,9.9,29.77,WSW,248,0.0,0.0,86,0.00,,,0.00,0.00,VWS V14.01,2013-02-01 01:47:00,
2013-01-31 20:52:00,13.3,9.9,29.77,West,277,0.0,0.0,86,0.00,,,0.00,0.00,VWS V14.01,2013-02-01 01:52:00,
2013-01-31 20:57:00,13.3,9.9,29.77,West,267,0.0,0.0,86,0.00,,,0.00,0.00,VWS V14.01,2013-02-01 01:57:00,
2013-01-31 21:00:00,13.5,9.8,29.76,West,262,0.0,0.0,85,0.00,,,0.00,0.00,VWS V14.01,2013-02-01 02:00:00,
2013-01-31 21:02:00,13.1,9.7,29.78,WSW,255,0.0,0.0,86,0.00,,,0.00,0.00,VWS V14.01,2013-02-01 02:02:00,
2013-01-31 21:07:00,13.1,9.4,29.78,East,84,0.0,0.0,85,0.00,,,0.00,0.00,VWS V14.01,2013-02-01 02:07:00,
2013-01-31 21:12:00,12.9,9.2,29.78,West,272,0.0,0.0,85,0.00,,,0.00,0.00,VWS V14.01,2013-02-01 02:12:00,
2013-01-31 21:17:00,12.9,9.2,29.78,WSW,257,0.0,0.0,85,0.00,,,0.00,0.00,VWS V14.01,2013-02-01 02:17:00,
2013-01-31 21:22:00,12.8,9.1,29.78,WSW,244,1.0,0.0,85,0.00,,,0.00,0.00,VWS V14.01,2013-02-01 02:22:00,
2013-01-31 21:27:00,12.8,9.1,29.78,WNW,286,0.0,0.0,85,0.00,,,0.00,0.00,VWS V14.01,2013-02-01 02:27:00,
2013-01-31 21:30:00,13.3,9.9,29.77,WSW,248,0.0,0.0,86,0.00,,,0.00,0.00,VWS V14.01,2013-02-01 02:30:00,
2013-01-31 21:32:00,12.8,9.4,29.78,West,259,0.0,0.0,86,0.00,,,0.00,0.00,VWS V14.01,2013-02-01 02:32:00,
2013-01-31 21:37:00,12.6,9.2,29.78,West,259,0.0,0.0,86,0.00,,,0.00,0.00,VWS V14.01,2013-02-01 02:37:00,
2013-01-31 21:42:00,12.6,9.2,29.78,West,266,0.0,0.0,86,0.00,,,0.00,0.00,VWS V14.01,2013-02-01 02:42:00,
2013-01-31 21:47:00,12.6,9.2,29.79,West,277,0.0,0.0,86,0.00,,,0.00,0.00,VWS V14.01,2013-02-01 02:47:00,
2013-01-31 21:52:00,12.6,9.2,29.79,West,276,0.0,0.0,86,0.00,,,0.00,0.00,VWS V14.01,2013-02-01 02:52:00,
2013-01-31 21:57:00,12.4,9.0,29.79,West,261,0.0,0.0,86,0.00,,,0.00,0.00,VWS V14.01,2013-02-01 02:57:00,
2013-01-31 22:00:00,12.9,9.2,29.78,WSW,257,0.0,0.0,85,0.00,,,0.00,0.00,VWS V14.01,2013-02-01 03:00:00,
2013-01-31 22:02:00,12.4,9.0,29.80,SSE,165,0.0,0.0,86,0.00,,,0.00,0.00,VWS V14.01,2013-02-01 03:02:00,
2013-01-31 22:07:00,12.4,9.0,29.80,WNW,296,0.0,0.0,86,0.00,,,0.00,0.00,VWS V14.01,2013-02-01 03:07:00,
2013-01-31 22:12:00,12.3,8.9,29.80,WNW,300,0.0,0.0,86,0.00,,,0.00,0.00,VWS V14.01,2013-02-01 03:12:00,
2013-01-31 22:17:00,12.3,8.9,29.80,West,276,0.0,0.0,86,0.00,,,0.00,0.00,VWS V14.01,2013-02-01 03:17:00,
2013-01-31 22:22:00,12.3,8.9,29.80,WSW,252,0.0,0.0,86,0.00,,,0.00,0.00,VWS V14.01,2013-02-01 03:22:00,
2013-01-31 22:27:00,12.3,8.9,29.80,WSW,254,0.0,0.0,86,0.00,,,0.00,0.00,VWS V14.01,2013-02-01 03:27:00,
2013-01-31 22:30:00,12.6,9.2,29.79,West,277,0.0,0.0,86,0.00,,,0.00,0.00,VWS V14.01,2013-02-01 03:30:00,
2013-01-31 22:32:00,12.3,8.9,29.81,SW,235,0.0,0.0,86,0.00,,,0.00,0.00,VWS V14.01,2013-02-01 03:32:00,
2013-01-31 22:37:00,12.1,8.7,29.81,WSW,256,0.0,0.0,86,0.00,,,0.00,0.00,VWS V14.01,2013-02-01 03:37:00,
2013-01-31 22:42:00,12.1,8.7,29.81,NW,305,0.0,0.0,86,0.00,,,0.00,0.00,VWS V14.01,2013-02-01 03:42:00,
2013-01-31 22:47:00,12.1,8.7,29.81,South,169,0.0,0.0,86,0.00,,,0.00,0.00,VWS V14.01,2013-02-01 03:47:00,
2013-01-31 22:52:00,12.1,8.7,29.81,WSW,244,0.0,0.0,86,0.00,,,0.00,0.00,VWS V14.01,2013-02-01 03:52:00,
2013-01-31 22:57:00,12.1,8.7,29.81,WNW,302,0.0,0.0,86,0.00,,,0.00,0.00,VWS V14.01,2013-02-01 03:57:00,
2013-01-31 23:00:00,12.3,8.9,29.80,West,276,0.0,0.0,86,0.00,,,0.00,0.00,VWS V14.01,2013-02-01 04:00:00,
2013-01-31 23:02:00,12.1,8.7,29.81,NW,314,0.0,0.0,86,0.00,,,0.00,0.00,VWS V14.01,2013-02-01 04:02:00,
2013-01-31 23:07:00,12.1,8.7,29.81,NW,316,0.0,0.0,86,0.00,,,0.00,0.00,VWS V14.01,2013-02-01 04:07:00,
2013-01-31 23:12:00,12.1,8.7,29.81,SW,219,0.0,0.0,86,0.00,,,0.00,0.00,VWS V14.01,2013-02-01 04:12:00,
2013-01-31 23:17:00,12.1,8.7,29.82,WNW,293,0.0,0.0,86,0.00,,,0.00,0.00,VWS V14.01,2013-02-01 04:17:00,
2013-01-31 23:22:00,12.1,8.7,29.82,WNW,293,0.0,0.0,86,0.00,,,0.00,0.00,VWS V14.01,2013-02-01 04:22:00,
2013-01-31 23:27:00,12.1,8.7,29.82,SW,234,0.0,0.0,86,0.00,,,0.00,0.00,VWS V14.01,2013-02-01 04:27:00,
2013-01-31 23:30:00,12.1,8.7,29.81,South,169,0.0,0.0,86,0.00,,OVC017,0.00,0.00,VWS V14.01,2013-02-01 04:30:00,
2013-01-31 23:32:00,12.1,8.7,29.82,West,269,0.0,0.0,86,0.00,,,0.00,0.00,VWS V14.01,2013-02-01 04:32:00,
2013-01-31 23:37:00,12.1,8.7,29.82,NW,309,0.0,0.0,86,0.00,,,0.00,0.00,VWS V14.01,2013-02-01 04:37:00,
2013-01-31 23:42:00,12.1,8.7,29.82,WNW,288,0.0,0.0,86,0.00,,,0.00,0.00,VWS V14.01,2013-02-01 04:42:00,
2013-01-31 23:47:00,12.1,8.7,29.83,SW,214,0.0,0.0,86,0.00,,,0.00,0.00,VWS V14.01,2013-02-01 04:47:00,
2013-01-31 23:52:00,12.1,8.7,29.83,WNW,303,0.0,0.0,86,0.00,,,0.00,0.00,VWS V14.01,2013-02-01 04:52:00,
2013-01-31 23:57:00,11.9,8.5,29.83,NNW,332,0.0,0.0,86,0.00,,,0.00,0.00,VWS V14.01,2013-02-01 04:57:00,